SCP
1 1 1 1 1 1 1 1 1 1 0 0 0 0 1 1 1 1 1 1 1 1 1 1 1 1 1 1 1 1 1 1 1 1 1 1 1 1 1 1 1 1 1
1 1 1 1 1 1 1 1 1 1 0 0 0 1 1 1 1 1 1 1 1 1 0 0 0 0 1 1 1 1 1 1 1 1 1 1 1 1 1 1 1 1 1
1 1 1 1 1 1 1 1 1 1 1 1 1 1 1 1 0 0 0 0 0 0 0 0 0 0 1 1 0 1 1 1 1 1 1 1 1 1 1 1 1 1 1
1 1 1 1 1 1 1 1 1 1 1 1 1 1 1 0 0 1 1 1 0 0 0 0 0 0 1 1 1 1 1 1 1 1 1 1 1 1 1 1 1 1 1
1 1 1 1 1 1 1 1 1 1 1 1 0 0 0 0 0 1 1 1 1 0 0 0 0 0 1 1 1 1 1 1 1 1 0 1 1 1 1 1 1 1 1
1 2 2 1 1 1 1 0 1 1 1 1 0 0 0 0 0 1 1 1 1 0 0 0 0 0 0 1 1 1 1 1 1 1 0 0 0 1 1 1 1 1 1
2 2 2 2 2 1 1 1 1 1 1 1 0 0 0 0 0 1 1 1 0 0 0 0 0 0 0 0 0 0 1 1 1 1 0 0 0 0 0 1 1 1 0
3 2 2 2 2 1 1 1 1 1 1 1 0 0 0 0 0 1 1 1 0 0 0 0 0 0 0 0 0 0 1 1 1 0 0 1 1 0 0 0 0 0 1
3 2 1 1 1 1 1 1 1 1 0 0 0 0 0 0 0 0 1 0 0 0 0 0 0 0 0 0 0 0 1 1 0 0 0 1 1 0 0 0 0 1 1
2 2 1 0 0 1 1 1 1 0 0 0 0 0 0 0 0 0 0 0 0 0 0 0 0 0 0 0 0 0 0 0 0 0 1 1 1 1 1 1 1 1 1
2 1 1 0 0 0 1 1 1 0 0 0 0 0 0 0 0 0 0 0 0 0 0 0 0 0 0 0 0 0 0 0 0 0 0 1 1 1 1 1 1 1 1
2 1 0 0 0 0 0 0 0 0 0 0 0 0 0 0 0 0 0 0 0 0 0 0 0 0 0 0 0 0 0 0 0 0 0 0 0 1 1 1 1 1 1
2 1 1 0 0 0 0 0 1 1 0 0 0 0 0 0 0 0 0 0 0 0 0 0 0 0 0 0 0 0 0 0 0 0 0 0 0 0 0 1 1 1 1
2 2 1 1 0 1 1 1 1 1 0 0 0 0 0 0 0 0 0 0 0 0 0 0 0 0 0 0 0 0 0 0 0 0 0 0 0 0 0 1 1 1 1
1 1 1 1 1 0 1 1 1 1 1 0 0 1 1 1 1 0 0 0 0 0 0 0 0 0 0 0 0 0 0 0 0 0 0 0 0 0 0 0 1 1 1
1 1 1 1 1 1 1 1 1 1 1 1 1 1 1 1 1 1 0 0 0 0 0 0 0 0 0 0 0 0 0 0 0 0 0 0 0 0 0 0 0 0 0
1 1 1 0 0 1 1 1 1 1 1 1 1 1 1 1 1 1 1 1 0 0 0 0 0 0 0 0 0 0 0 0 0 0 0 0 0 0 0 0 0 0 0
1 1 1 0 0 0 1 1 1 0 0 0 0 0 0 1 1 1 1 1 1 1 0 0 0 0 0 0 0 0 0 0 0 0 0 0 0 0 0 0 0 0 0
1 1 1 0 0 0 0 1 0 0 0 0 0 0 0 0 1 1 1 1 1 1 0 0 0 0 0 0 0 0 0 0 0 0 0 0 0 0 0 0 0 0 0
1 1 1 1 0 0 0 0 0 0 0 0 0 0 0 0 0 0 1 1 1 1 1 0 0 0 0 0 0 0 0 0 0 0 0 0 0 0 0 0 0 0 0
1 1 1 1 0 0 0 0 0 0 0 0 0 0 0 0 0 0 0 1 1 1 0 0 0 0 1 1 1 1 1 0 0 0 0 0 0 0 0 0 0 0 0
1 1 1 1 1 0 0 0 0 0 0 0 0 0 0 0 0 0 0 0 0 0 0 0 0 1 1 1 1 1 1 1 0 0 0 0 0 0 0 0 0 0 0
1 1 1 1 1 0 0 0 0 0 0 0 0 0 0 0 0 0 0 0 0 0 0 0 0 0 1 1 0 1 1 1 1 0 0 0 0 0 0 0 0 0 0
1 1 1 1 0 0 0 0 0 0 0 0 0 0 0 0 0 0 0 0 0 0 0 0 0 0 0 0 0 0 0 1 1 1 0 0 0 0 0 0 0 0 0
1 1 0 0 0 0 0 0 0 0 0 0 0 0 0 0 0 0 0 0 0 0 0 0 0 0 0 0 0 0 0 0 0 0 0 0 0 0 0 0 0 0 0
0 0 0 1 0 0 0 0 0 0 0 0 0 0 0 0 0 0 0 0 0 0 0 0 0 0 0 0 0 0 0 0 0 0 0 1 1 0 0 0 0 0 0
Wind_Speed
3 2 2 2 3 2 2 3 4 5 5 5 5 6 6 6 6 5 4 10 11 11 11 10 10 9 9 9 9 9 9 9 9 9 9 8 9 9 9 8 8 8 8
3 3 3 3 3 3 3 3 4 4 4 4 5 5 5 5 5 5 4 6 10 10 10 10 9 9 9 8 9 9 9 9 9 8 8 9 9 8 8 8 8 8 7
3 3 3 3 3 3 4 4 4 3 3 4 4 4 4 4 4 4 4 3 4 8 10 10 9 8 7 7 8 7 8 8 8 8 8 9 9 8 8 8 7 7 7
5 3 3 3 3 3 3 3 3 3 3 3 3 2 2 2 3 3 4 3 3 4 5 8 8 8 7 7 7 7 7 8 8 8 8 8 8 8 8 8 7 7 7
4 3 2 2 3 2 2 2 3 3 3 2 2 1 1 2 2 2 3 4 4 3 3 5 7 7 6 6 6 6 7 7 8 8 8 8 8 8 7 7 7 7 7
4 3 2 3 3 2 2 2 3 2 1 1 2 2 1 2 2 2 2 3 3 3 3 4 3 4 6 6 6 6 6 7 7 7 8 8 7 7 7 6 6 7 7
3 2 2 2 2 2 1 2 2 1 1 1 2 1 1 1 2 2 2 2 2 2 3 3 2 2 2 5 6 6 6 6 6 7 7 7 7 7 6 6 6 6 6
2 2 2 2 2 2 2 2 1 1 0 0 1 1 1 1 2 1 1 2 2 1 2 3 3 3 3 2 4 6 5 5 6 6 7 7 6 6 6 6 6 6 6
2 1 1 2 2 2 2 1 1 1 0 1 1 1 1 1 0 1 1 1 2 2 2 2 3 4 4 3 3 4 7 6 6 5 5 5 5 5 5 5 6 5 5
1 1 1 1 2 2 1 1 1 1 1 1 1 1 1 2 2 0 1 1 1 2 2 2 3 3 4 3 4 6 6 6 5 5 4 4 4 4 4 5 5 5 5
1 1 1 1 1 1 1 1 1 1 1 0 0 0 1 1 1 2 1 0 1 1 1 2 2 3 4 4 3 5 6 6 5 5 4 4 4 4 4 5 4 4 5
0 1 1 0 0 1 1 1 1 1 0 0 0 0 0 0 0 1 1 1 1 1 1 2 2 3 3 3 5 7 6 6 5 5 5 5 4 4 4 4 4 4 4
0 0 0 0 0 0 1 1 0 0 1 1 0 0 0 1 0 1 1 1 1 1 1 1 1 2 3 3 3 6 5 5 5 5 5 5 4 4 3 3 3 3 3
1 1 1 1 0 0 0 1 0 1 1 1 1 0 0 0 0 1 1 2 1 0 1 1 1 2 3 3 4 5 3 5 4 4 4 4 4 4 3 3 2 2 2
1 1 2 1 1 1 0 0 0 1 1 0 0 0 0 0 1 1 1 2 3 2 1 1 1 1 3 3 4 3 3 4 4 4 4 4 4 4 4 4 3 2 2
1 1 1 1 1 1 1 1 0 1 1 0 0 0 0 1 1 1 1 0 1 2 2 1 1 2 2 3 4 3 3 6 5 4 4 4 4 4 4 4 4 4 3
0 1 1 1 1 1 1 1 1 1 1 1 1 1 1 1 1 1 1 0 0 2 2 1 1 2 2 2 2 2 3 3 2 4 4 4 4 4 3 4 4 5 5
1 1 2 1 1 0 0 1 1 1 1 1 1 0 1 1 1 1 0 1 1 1 3 2 1 1 2 2 2 2 2 3 3 5 5 5 4 4 3 3 3 4 5
1 1 2 2 1 1 1 1 1 1 1 1 0 1 1 1 1 1 1 1 1 1 2 2 1 1 1 1 1 1 1 1 2 4 5 5 5 4 4 3 3 3 4
1 1 1 1 2 1 1 1 1 1 1 1 0 0 0 1 1 1 1 1 1 1 1 2 2 1 1 1 2 1 0 0 1 2 3 4 5 5 5 5 4 4 4
1 1 0 0 1 1 0 0 1 1 1 0 0 1 1 2 2 1 1 1 1 1 1 1 2 1 1 1 1 1 1 1 1 1 1 2 3 2 3 5 5 6 6
1 1 1 1 1 1 3 3 2 1 0 0 0 0 1 2 2 2 2 2 2 2 2 1 1 2 2 2 1 1 1 1 1 1 1 1 2 3 3 3 6 8 8
0 1 1 1 1 1 3 3 3 1 1 1 0 0 1 1 2 1 1 2 2 1 1 2 2 2 2 2 2 1 2 2 2 2 1 1 1 2 3 4 8 9 9
0 0 1 1 1 1 2 2 2 1 0 0 0 0 1 1 1 2 0 1 1 0 1 1 2 2 2 2 3 3 3 2 1 1 1 1 1 2 2 2 7 9 9
1 1 1 1 1 1 2 2 1 1 0 0 0 1 1 1 2 3 2 1 1 0 1 1 2 2 2 1 1 1 1 1 1 2 1 1 1 1 1 2 4 7 8
1 1 1 1 2 2 2 1 1 0 1 0 0 1 2 2 2 3 1 1 1 1 1 0 0 0 1 1 1 2 2 2 1 1 1 1 1 0 1 1 1 2 3
Wind_Direction
96 95 92 88 83 71 66 59 62 59 54 49 60 73 78 81 84 81 80 80 79 81 82 87 87 83 81 80 79 78 78 80 81 81 79 80 82 80 80 79 79 83 85
90 85 79 72 75 71 68 70 72 66 61 57 54 58 72 84 88 93 92 82 78 79 79 82 82 81 80 79 77 76 77 78 80 79 78 79 81 80 79 78 78 79 83
88 79 77 75 72 70 70 70 70 67 72 67 60 58 60 74 94 100 102 96 86 78 77 76 75 79 82 81 79 77 79 80 83 82 81 83 82 78 78 77 76 75 79
85 77 75 72 75 69 70 73 74 63 64 63 55 55 59 61 95 112 111 109 103 94 84 80 73 72 81 84 86 82 86 84 82 81 83 85 82 79 77 78 78 75 76
73 80 79 82 78 69 70 79 79 81 80 78 81 70 54 49 52 85 100 112 111 115 111 93 80 71 76 84 89 90 92 91 86 85 86 86 85 80 76 76 78 80 76
65 74 85 83 84 76 66 68 78 85 102 113 97 81 84 83 57 45 67 86 103 120 119 118 104 77 74 76 80 89 93 97 92 89 89 90 90 85 78 78 80 80 77
67 68 76 80 84 98 110 102 97 99 128 139 97 53 30 72 92 61 58 78 80 99 116 122 124 107 84 71 69 79 85 92 96 93 91 91 92 91 85 87 88 84 79
65 70 79 91 86 87 86 91 100 90 313 256 128 129 89 16 23 55 66 77 73 68 86 110 116 108 99 90 75 74 77 86 95 97 95 92 91 91 88 91 92 89 83
70 72 76 96 123 122 125 146 148 138 250 307 61 128 141 156 337 350 43 84 90 72 59 69 85 98 102 92 85 70 72 73 85 92 90 91 95 94 93 93 94 94 90
76 69 81 92 104 106 127 178 139 145 135 302 334 341 105 136 139 114 343 45 90 94 94 84 74 83 91 92 85 85 80 73 74 80 89 93 94 98 103 100 99 101 97
98 85 75 63 111 129 153 138 96 100 142 172 257 327 6 1 160 142 180 239 49 83 101 101 96 87 87 91 92 90 86 79 71 67 76 91 99 106 109 108 108 107 101
110 132 153 154 81 110 112 108 120 142 211 243 250 209 162 211 271 141 166 179 138 133 99 95 105 109 107 100 102 99 91 81 74 63 63 73 84 98 106 113 111 107 104
180 216 77 139 321 80 103 116 108 181 234 231 257 262 241 244 191 100 122 152 130 149 105 96 123 129 123 111 111 111 100 96 85 73 68 65 66 78 85 96 107 111 107
187 181 177 203 201 85 94 113 136 232 266 209 209 203 269 279 94 102 130 131 121 98 113 156 109 124 117 120 128 127 113 115 104 90 81 74 71 71 71 67 75 93 106
203 173 194 205 166 133 97 87 262 286 308 338 273 241 247 224 136 122 128 142 149 158 185 170 137 147 126 122 139 138 128 129 123 111 103 94 87 81 75 69 67 65 85
197 187 196 201 179 173 170 149 304 295 296 228 271 344 5 16 63 86 117 141 141 149 155 178 166 156 135 139 146 146 140 135 138 133 122 111 107 99 87 79 73 70 82
180 171 219 187 164 202 188 144 219 265 289 273 241 184 149 112 108 90 69 72 74 117 135 173 136 136 117 118 121 145 143 146 145 150 144 133 125 117 105 97 84 79 84
241 210 190 199 176 189 197 173 224 256 267 292 280 225 184 153 147 142 164 169 166 137 139 148 157 141 141 150 150 164 166 156 148 153 155 152 147 137 126 117 102 97 97
227 240 204 186 170 172 188 197 218 251 236 263 311 291 232 149 148 161 172 175 175 126 127 145 174 168 163 168 150 175 170 153 160 154 160 164 163 158 152 146 139 131 122
239 255 230 173 165 162 184 193 206 233 241 247 241 294 12 120 179 177 179 172 139 124 132 138 162 175 187 203 143 149 259 233 189 160 168 169 172 174 178 177 173 165 153
297 309 334 109 116 126 118 164 225 240 231 247 347 63 69 70 54 93 98 129 126 136 143 153 173 165 184 167 194 200 205 224 253 195 170 183 170 175 192 197 194 187 180
326 346 330 83 71 45 33 30 36 334 53 76 42 77 110 85 65 80 85 108 120 144 172 172 189 187 199 182 184 187 192 176 269 262 175 231 177 187 199 198 193 190 191
324 300 297 140 113 76 62 40 21 28 54 42 71 25 353 49 69 62 106 114 106 92 131 171 187 206 195 194 183 201 207 199 223 224 165 254 224 210 214 201 189 193 196
343 322 303 181 140 91 87 59 15 347 184 51 53 79 92 80 37 29 148 130 132 185 232 182 173 204 207 203 194 201 203 207 236 251 162 218 240 229 228 208 190 192 196
254 271 268 209 145 116 98 75 56 290 292 297 43 43 76 110 39 38 58 127 145 342 35 117 154 189 182 194 189 150 172 167 227 253 227 179 240 250 254 231 204 196 202
246 253 259 222 173 156 140 129 139 209 211 191 96 71 49 51 62 53 65 89 169 223 202 311 13 302 237 211 176 179 183 184 200 247 233 174 223 183 287 266 207 194 199